Time,TemperatureF,DewpointF,PressureIn,WindDirection,WindDirectionDegrees,WindSpeedMPH,WindSpeedGustMPH,Humidity,HourlyPrecipIn,Conditions,Clouds,dailyrainin,SoftwareType,DateUTC
2013-07-06 00:00:00,75.3,73.8,30.09,ESE,114,0.0,0.0,95,0.00,-RA,,0.12,WeatherDisplay:10.37,2013-07-06 04:00:00,
2013-07-06 00:01:00,75.3,73.8,30.09,ESE,115,0.0,1.0,95,0.00,-RA,,0.00,WeatherDisplay:10.37,2013-07-06 04:01:00,
2013-07-06 00:06:00,75.1,73.6,30.09,ESE,114,0.0,0.0,95,0.00,-RA,,0.00,WeatherDisplay:10.37,2013-07-06 04:06:00,
2013-07-06 00:11:00,75.1,73.6,30.09,ESE,116,0.0,1.1,95,0.00,-RA,,0.00,WeatherDisplay:10.37,2013-07-06 04:11:00,
2013-07-06 00:16:00,75.1,73.6,30.09,SSE,150,0.2,1.1,95,0.00,-RA,,0.00,WeatherDisplay:10.37,2013-07-06 04:16:00,
2013-07-06 00:21:00,75.0,73.8,30.09,SW,221,0.4,1.1,96,0.00,-RA,,0.00,WeatherDisplay:10.37,2013-07-06 04:21:00,
2013-07-06 00:26:00,75.0,73.8,30.09,SW,219,0.0,0.0,96,0.00,-RA,,0.00,WeatherDisplay:10.37,2013-07-06 04:26:00,
2013-07-06 00:31:00,74.9,73.7,30.09,SW,220,0.0,0.0,96,0.00,-RA,,0.00,WeatherDisplay:10.37,2013-07-06 04:31:00,
2013-07-06 00:36:00,74.8,73.6,30.08,SW,219,0.0,0.0,96,0.00,-RA,,0.00,WeatherDisplay:10.37,2013-07-06 04:36:00,
2013-07-06 00:41:00,74.7,73.5,30.08,SW,219,0.0,0.0,96,0.00,-RA,,0.00,WeatherDisplay:10.37,2013-07-06 04:41:00,
2013-07-06 00:46:00,74.7,73.5,30.08,SW,219,0.0,0.0,96,0.00,-RA,,0.00,WeatherDisplay:10.37,2013-07-06 04:46:00,
2013-07-06 00:51:00,74.7,73.5,30.08,SW,219,0.0,0.0,96,0.00,-RA,,0.00,WeatherDisplay:10.37,2013-07-06 04:51:00,
2013-07-06 00:56:00,74.6,73.4,30.08,SW,219,0.0,0.0,96,0.00,-RA,,0.00,WeatherDisplay:10.37,2013-07-06 04:56:00,
2013-07-06 01:01:00,74.5,73.3,30.08,SW,219,0.0,0.0,96,0.00,-RA,,0.00,WeatherDisplay:10.37,2013-07-06 05:01:00,
2013-07-06 01:06:00,74.4,73.2,30.07,SW,219,0.0,0.0,96,0.00,-RA,,0.00,WeatherDisplay:10.37,2013-07-06 05:06:00,
2013-07-06 01:11:00,74.3,73.1,30.07,SW,219,0.0,0.0,96,0.00,-RA,,0.00,WeatherDisplay:10.37,2013-07-06 05:11:00,
2013-07-06 01:16:00,74.3,73.4,30.07,SW,219,0.0,0.0,97,0.00,-RA,,0.00,WeatherDisplay:10.37,2013-07-06 05:16:00,
2013-07-06 01:21:00,74.2,73.3,30.07,SE,144,0.0,0.0,97,0.00,-RA,,0.00,WeatherDisplay:10.37,2013-07-06 05:21:00,
2013-07-06 01:26:00,74.1,73.2,30.07,SE,144,0.0,0.0,97,0.00,-RA,,0.00,WeatherDisplay:10.37,2013-07-06 05:26:00,
2013-07-06 01:31:00,74.0,73.1,30.07,SE,143,0.0,0.0,97,0.00,-RA,,0.00,WeatherDisplay:10.37,2013-07-06 05:31:00,
2013-07-06 01:36:00,73.9,73.0,30.07,SE,144,0.0,0.0,97,0.00,-RA,,0.00,WeatherDisplay:10.37,2013-07-06 05:36:00,
2013-07-06 01:41:00,73.9,73.0,30.07,ESE,117,0.0,0.0,97,0.00,-RA,,0.00,WeatherDisplay:10.37,2013-07-06 05:41:00,
2013-07-06 01:46:00,73.8,72.9,30.06,ESE,117,0.0,0.0,97,0.00,-RA,,0.00,WeatherDisplay:10.37,2013-07-06 05:46:00,
2013-07-06 01:51:00,73.8,72.9,30.06,ESE,110,0.5,2.3,97,0.00,-RA,,0.00,WeatherDisplay:10.37,2013-07-06 05:51:00,
2013-07-06 01:56:00,73.7,72.8,30.06,ESE,114,0.0,0.0,97,0.00,-RA,,0.00,WeatherDisplay:10.37,2013-07-06 05:56:00,
2013-07-06 02:01:00,73.7,72.8,30.06,East,100,0.4,1.1,97,0.00,-RA,,0.00,WeatherDisplay:10.37,2013-07-06 06:01:00,
2013-07-06 02:06:00,73.7,72.8,30.06,ESE,111,0.0,1.1,97,0.00,-RA,,0.00,WeatherDisplay:10.37,2013-07-06 06:06:00,
2013-07-06 02:11:00,73.6,72.7,30.06,East,85,0.0,1.1,97,0.00,-RA,,0.00,WeatherDisplay:10.37,2013-07-06 06:11:00,
2013-07-06 02:16:00,73.5,72.6,30.06,SE,134,0.0,0.0,97,0.00,-RA,,0.00,WeatherDisplay:10.37,2013-07-06 06:16:00,
2013-07-06 02:21:00,73.5,72.6,30.06,SE,134,0.0,0.0,97,0.00,-RA,,0.00,WeatherDisplay:10.37,2013-07-06 06:21:00,
2013-07-06 02:26:00,73.4,72.5,30.06,SE,134,0.0,0.0,97,0.00,-RA,,0.00,WeatherDisplay:10.37,2013-07-06 06:26:00,
2013-07-06 02:31:00,73.3,72.4,30.06,SE,134,0.0,0.0,97,0.00,-RA,,0.00,WeatherDisplay:10.37,2013-07-06 06:31:00,
2013-07-06 02:36:00,73.3,72.4,30.05,SE,134,0.0,0.0,97,0.00,-RA,,0.00,WeatherDisplay:10.37,2013-07-06 06:36:00,
2013-07-06 02:41:00,73.1,72.2,30.05,SE,134,0.0,0.0,97,0.00,-RA,,0.00,WeatherDisplay:10.37,2013-07-06 06:41:00,
2013-07-06 02:46:00,73.0,72.1,30.05,SE,134,0.0,0.0,97,0.00,-RA,,0.00,WeatherDisplay:10.37,2013-07-06 06:46:00,
2013-07-06 02:51:00,72.9,72.0,30.04,SE,134,0.0,0.0,97,0.00,-RA,,0.00,WeatherDisplay:10.37,2013-07-06 06:51:00,
2013-07-06 02:56:00,72.9,72.0,30.04,SE,132,0.0,0.0,97,0.00,-RA,,0.00,WeatherDisplay:10.37,2013-07-06 06:56:00,
2013-07-06 03:01:00,72.9,72.0,30.04,SE,133,0.0,0.0,97,0.00,-RA,,0.00,WeatherDisplay:10.37,2013-07-06 07:01:00,
2013-07-06 03:06:00,72.8,71.9,30.03,SE,133,0.0,0.0,97,0.00,-RA,,0.00,WeatherDisplay:10.37,2013-07-06 07:06:00,
2013-07-06 03:11:00,72.8,71.9,30.03,ESE,104,0.3,1.1,97,0.00,-RA,,0.00,WeatherDisplay:10.37,2013-07-06 07:11:00,
2013-07-06 03:16:00,72.9,72.0,30.04,ESE,115,0.1,1.1,97,0.00,-RA,,0.00,WeatherDisplay:10.37,2013-07-06 07:16:00,
2013-07-06 03:21:00,72.9,72.0,30.04,ESE,112,0.2,2.3,97,0.00,-RA,,0.00,WeatherDisplay:10.37,2013-07-06 07:21:00,
2013-07-06 03:26:00,72.9,72.0,30.04,ESE,122,0.1,1.1,97,0.00,-RA,,0.00,WeatherDisplay:10.37,2013-07-06 07:26:00,
2013-07-06 03:31:00,72.9,72.0,30.04,SE,134,0.0,0.0,97,0.00,-RA,,0.00,WeatherDisplay:10.37,2013-07-06 07:31:00,
2013-07-06 03:36:00,72.9,72.0,30.04,ESE,110,0.1,1.1,97,0.00,-RA,,0.00,WeatherDisplay:10.37,2013-07-06 07:36:00,
2013-07-06 03:41:00,72.9,72.0,30.04,ESE,122,0.0,1.1,97,0.00,-RA,,0.00,WeatherDisplay:10.37,2013-07-06 07:41:00,
2013-07-06 03:46:00,73.0,72.1,30.04,East,97,0.1,1.1,97,0.00,-RA,,0.00,WeatherDisplay:10.37,2013-07-06 07:46:00,
2013-07-06 03:51:00,72.9,72.0,30.04,ENE,77,0.7,2.3,97,0.00,-RA,,0.00,WeatherDisplay:10.37,2013-07-06 07:51:00,
2013-07-06 03:56:00,72.9,72.0,30.04,East,99,0.3,1.0,97,0.00,-RA,,0.00,WeatherDisplay:10.37,2013-07-06 07:56:00,
2013-07-06 04:01:00,72.9,72.0,30.04,East,80,0.8,0.0,97,0.00,-RA,,0.00,WeatherDisplay:10.37,2013-07-06 08:01:00,
2013-07-06 04:06:00,72.8,71.9,30.03,ESE,106,0.0,1.1,97,0.00,-RA,,0.00,WeatherDisplay:10.37,2013-07-06 08:06:00,
2013-07-06 04:12:00,72.8,71.9,30.03,East,79,0.2,1.1,97,0.00,-RA,,0.00,WeatherDisplay:10.37,2013-07-06 08:12:00,
2013-07-06 04:17:00,72.7,71.8,30.03,ESE,117,0.0,0.0,97,0.00,-RA,,0.00,WeatherDisplay:10.37,2013-07-06 08:17:00,
2013-07-06 04:22:00,72.7,71.8,30.03,East,84,1.3,2.3,97,0.00,-RA,,0.00,WeatherDisplay:10.37,2013-07-06 08:22:00,
2013-07-06 04:27:00,72.7,71.8,30.03,ESE,120,0.9,1.1,97,0.00,-RA,,0.00,WeatherDisplay:10.37,2013-07-06 08:27:00,
2013-07-06 04:32:00,72.7,71.8,30.03,SE,143,0.2,1.1,97,0.00,-RA,,0.00,WeatherDisplay:10.37,2013-07-06 08:32:00,
2013-07-06 04:37:00,72.7,71.8,30.04,East,99,0.0,2.3,97,0.00,-RA,,0.00,WeatherDisplay:10.37,2013-07-06 08:37:00,
2013-07-06 04:42:00,72.8,71.9,30.03,East,98,1.6,3.5,97,0.00,-RA,,0.00,WeatherDisplay:10.37,2013-07-06 08:42:00,
2013-07-06 04:47:00,72.9,72.0,30.03,ESE,118,0.0,2.3,97,0.00,-RA,,0.00,WeatherDisplay:10.37,2013-07-06 08:47:00,
2013-07-06 04:52:00,73.0,72.1,30.03,East,82,1.4,2.3,97,0.00,SCT,,0.00,WeatherDisplay:10.37,2013-07-06 08:52:00,
2013-07-06 04:57:00,73.1,72.2,30.02,East,88,0.1,2.3,97,0.00,SCT,,0.00,WeatherDisplay:10.37,2013-07-06 08:57:00,
2013-07-06 05:02:00,73.1,72.2,30.02,East,97,1.1,3.5,97,0.00,SCT,,0.00,WeatherDisplay:10.37,2013-07-06 09:02:00,
2013-07-06 05:07:00,73.2,72.3,30.02,ESE,120,0.9,3.5,97,0.00,SCT,,0.00,WeatherDisplay:10.37,2013-07-06 09:07:00,
2013-07-06 05:12:00,73.3,72.4,30.02,ENE,68,0.5,3.5,97,0.00,SCT,,0.00,WeatherDisplay:10.37,2013-07-06 09:12:00,
2013-07-06 05:17:00,73.4,72.5,30.02,ESE,112,0.2,3.5,97,0.00,SCT,,0.00,WeatherDisplay:10.37,2013-07-06 09:17:00,
2013-07-06 05:22:00,73.5,72.6,30.02,East,99,1.3,3.5,97,0.00,SCT,,0.00,WeatherDisplay:10.37,2013-07-06 09:22:00,
2013-07-06 05:27:00,73.5,72.6,30.02,ESE,121,0.5,1.1,97,0.00,SCT,,0.00,WeatherDisplay:10.37,2013-07-06 09:27:00,
2013-07-06 05:32:00,73.5,72.6,30.02,ESE,110,0.8,2.0,97,0.00,SCT,,0.00,WeatherDisplay:10.37,2013-07-06 09:32:00,
2013-07-06 05:37:00,73.5,72.6,30.02,East,92,1.4,2.3,97,0.00,SCT,,0.00,WeatherDisplay:10.37,2013-07-06 09:37:00,
2013-07-06 05:42:00,73.5,72.6,30.02,ENE,75,1.7,3.0,97,0.00,SCT,,0.00,WeatherDisplay:10.37,2013-07-06 09:42:00,
2013-07-06 05:47:00,73.5,72.6,30.02,SE,127,0.8,3.0,97,0.00,SCT,,0.00,WeatherDisplay:10.37,2013-07-06 09:47:00,
2013-07-06 05:52:00,73.5,72.6,30.02,SE,143,1.4,1.4,97,0.00,SCT,,0.00,WeatherDisplay:10.37,2013-07-06 09:52:00,
2013-07-06 05:57:00,73.6,72.7,30.02,East,86,0.9,3.5,97,0.00,SCT,,0.00,WeatherDisplay:10.37,2013-07-06 09:57:00,
2013-07-06 06:02:00,73.6,72.7,30.02,ESE,114,0.5,3.5,97,0.00,SCT,,0.00,WeatherDisplay:10.37,2013-07-06 10:02:00,
2013-07-06 06:07:00,73.6,72.7,30.02,East,85,0.1,1.1,97,0.01,RA,,0.01,WeatherDisplay:10.37,2013-07-06 10:07:00,
2013-07-06 06:12:00,73.6,72.7,30.02,East,101,0.7,2.3,97,0.01,SCT,,0.01,WeatherDisplay:10.37,2013-07-06 10:12:00,
2013-07-06 06:17:00,73.5,72.6,30.02,SE,131,0.9,2.3,97,0.01,SCT,,0.01,WeatherDisplay:10.37,2013-07-06 10:17:00,
2013-07-06 06:22:00,73.5,72.6,30.02,ESE,109,1.3,2.0,97,0.01,SCT,,0.01,WeatherDisplay:10.37,2013-07-06 10:22:00,
2013-07-06 06:27:00,73.5,72.6,30.02,ESE,113,0.6,2.3,97,0.01,SCT,,0.01,WeatherDisplay:10.37,2013-07-06 10:27:00,
2013-07-06 06:32:00,73.5,72.6,30.02,ESE,109,1.1,3.5,97,0.01,SCT,,0.01,WeatherDisplay:10.37,2013-07-06 10:32:00,
2013-07-06 06:37:00,73.5,72.6,30.02,East,82,0.9,1.0,97,0.01,SCT,,0.01,WeatherDisplay:10.37,2013-07-06 10:37:00,
2013-07-06 06:42:00,73.6,72.7,30.02,SE,125,0.1,1.1,97,0.01,SCT,,0.01,WeatherDisplay:10.37,2013-07-06 10:42:00,
2013-07-06 06:47:00,73.6,73.0,30.02,East,99,0.7,1.1,98,0.01,SCT,,0.01,WeatherDisplay:10.37,2013-07-06 10:47:00,
2013-07-06 06:52:00,73.7,73.1,30.03,ESE,108,1.1,3.5,98,0.01,SCT,,0.01,WeatherDisplay:10.37,2013-07-06 10:52:00,
2013-07-06 06:57:00,73.8,73.2,30.03,East,79,1.5,2.3,98,0.01,SCT,,0.01,WeatherDisplay:10.37,2013-07-06 10:57:00,
2013-07-06 07:02:00,73.9,73.3,30.03,ESE,111,0.8,2.3,98,0.01,SCT,,0.01,WeatherDisplay:10.37,2013-07-06 11:02:00,
2013-07-06 07:07:00,73.9,73.3,30.04,SE,131,1.0,3.5,98,0.00,SCT,,0.01,WeatherDisplay:10.37,2013-07-06 11:07:00,
2013-07-06 07:12:00,74.1,73.5,30.04,ESE,109,0.3,3.5,98,0.00,SCT,,0.01,WeatherDisplay:10.37,2013-07-06 11:12:00,
2013-07-06 07:17:00,74.2,73.6,30.04,ESE,117,0.8,4.0,98,0.00,SCT,,0.01,WeatherDisplay:10.37,2013-07-06 11:17:00,
2013-07-06 07:22:00,74.3,73.7,30.04,SE,124,1.2,3.5,98,0.00,SCT,,0.01,WeatherDisplay:10.37,2013-07-06 11:22:00,
2013-07-06 07:27:00,74.4,73.8,30.04,ESE,108,2.5,3.5,98,0.00,SCT,,0.01,WeatherDisplay:10.37,2013-07-06 11:27:00,
2013-07-06 07:32:00,74.6,73.7,30.04,ESE,122,2.9,5.8,97,0.00,SCT,,0.01,WeatherDisplay:10.37,2013-07-06 11:32:00,
2013-07-06 07:37:00,74.8,73.9,30.04,ESE,122,0.0,3.5,97,0.00,SCT,,0.01,WeatherDisplay:10.37,2013-07-06 11:37:00,
2013-07-06 07:42:00,74.9,74.0,30.05,East,92,2.3,6.9,97,0.00,SCT,,0.01,WeatherDisplay:10.37,2013-07-06 11:42:00,
2013-07-06 07:47:00,75.1,74.2,30.05,East,101,1.6,3.0,97,0.00,SCT,,0.01,WeatherDisplay:10.37,2013-07-06 11:47:00,
2013-07-06 07:52:00,75.3,74.4,30.05,South,176,1.3,5.8,97,0.00,SCT,,0.01,WeatherDisplay:10.37,2013-07-06 11:52:00,
2013-07-06 07:57:00,75.5,74.6,30.05,ESE,121,2.0,5.8,97,0.00,SCT,,0.01,WeatherDisplay:10.37,2013-07-06 11:57:00,
2013-07-06 08:02:00,75.8,74.6,30.06,East,81,2.8,4.6,96,0.00,SCT,,0.01,WeatherDisplay:10.37,2013-07-06 12:02:00,
2013-07-06 08:07:00,76.1,74.9,30.06,SE,129,1.9,4.6,96,0.00,SCT,,0.01,WeatherDisplay:10.37,2013-07-06 12:07:00,
2013-07-06 08:12:00,76.3,74.8,30.06,SE,130,3.3,5.8,95,0.00,SCT,,0.01,WeatherDisplay:10.37,2013-07-06 12:12:00,
2013-07-06 08:17:00,76.6,75.1,30.06,SE,146,3.8,4.6,95,0.00,SCT,,0.01,WeatherDisplay:10.37,2013-07-06 12:17:00,
2013-07-06 08:22:00,76.9,75.0,30.06,East,93,2.9,9.2,94,0.00,SCT,,0.01,WeatherDisplay:10.37,2013-07-06 12:22:00,
2013-07-06 08:27:00,77.2,75.3,30.06,ESE,117,2.6,6.9,94,0.00,SCT,,0.01,WeatherDisplay:10.37,2013-07-06 12:27:00,
2013-07-06 08:32:00,77.7,75.5,30.06,ESE,110,3.3,10.4,93,0.00,SCT,,0.01,WeatherDisplay:10.37,2013-07-06 12:32:00,
2013-07-06 08:37:00,78.1,75.6,30.06,ENE,77,3.9,6.9,92,0.00,SCT,,0.01,WeatherDisplay:10.37,2013-07-06 12:37:00,
2013-07-06 08:42:00,78.6,75.8,30.06,ESE,117,5.2,6.9,91,0.00,SCT,,0.01,WeatherDisplay:10.37,2013-07-06 12:42:00,
2013-07-06 08:47:00,79.0,76.1,30.06,East,94,3.7,6.9,91,0.00,SCT,,0.01,WeatherDisplay:10.37,2013-07-06 12:47:00,
2013-07-06 08:52:00,79.3,76.1,30.07,SE,136,4.4,5.8,90,0.00,SCT,,0.01,WeatherDisplay:10.37,2013-07-06 12:52:00,
2013-07-06 08:57:00,79.7,76.2,30.07,ENE,61,2.6,8.1,89,0.00,SCT,,0.01,WeatherDisplay:10.37,2013-07-06 12:57:00,
2013-07-06 09:02:00,79.8,76.3,30.07,ESE,122,4.0,9.2,89,0.00,SCT,,0.01,WeatherDisplay:10.37,2013-07-06 13:02:00,
2013-07-06 09:07:00,80.1,76.2,30.07,SE,124,3.8,10.0,88,0.00,SCT,,0.01,WeatherDisplay:10.37,2013-07-06 13:07:00,
2013-07-06 09:12:00,80.3,76.4,30.07,ESE,117,4.5,6.0,88,0.00,SCT,,0.01,WeatherDisplay:10.37,2013-07-06 13:12:00,
2013-07-06 09:17:00,80.6,76.4,30.07,ESE,117,6.7,11.5,87,0.00,SCT,,0.01,WeatherDisplay:10.37,2013-07-06 13:17:00,
2013-07-06 09:22:00,80.7,76.5,30.07,SE,143,5.2,9.2,87,0.00,SCT,,0.01,WeatherDisplay:10.37,2013-07-06 13:22:00,
2013-07-06 09:27:00,81.1,76.9,30.07,South,169,2.6,9.2,87,0.00,SCT,,0.01,WeatherDisplay:10.37,2013-07-06 13:27:00,
2013-07-06 09:32:00,81.5,76.6,30.07,SSE,165,3.8,8.1,85,0.00,SCT,,0.01,WeatherDisplay:10.37,2013-07-06 13:32:00,
2013-07-06 09:37:00,81.7,76.4,30.08,SE,137,3.9,6.9,84,0.00,SCT,,0.01,WeatherDisplay:10.37,2013-07-06 13:37:00,
2013-07-06 09:42:00,81.9,76.6,30.08,SE,135,5.3,10.4,84,0.00,SCT,,0.01,WeatherDisplay:10.37,2013-07-06 13:42:00,
2013-07-06 09:47:00,82.0,76.3,30.08,ESE,113,4.4,8.1,83,0.00,SCT,,0.01,WeatherDisplay:10.37,2013-07-06 13:47:00,
2013-07-06 09:52:00,82.4,76.7,30.08,SE,137,1.7,5.8,83,0.00,SCT,,0.01,WeatherDisplay:10.37,2013-07-06 13:52:00,
2013-07-06 09:57:00,82.2,76.2,30.08,SSE,150,5.3,10.4,82,0.00,SCT,,0.01,WeatherDisplay:10.37,2013-07-06 13:57:00,
2013-07-06 10:02:00,82.1,76.4,30.08,SSE,158,8.5,12.7,83,0.00,SCT,,0.01,WeatherDisplay:10.37,2013-07-06 14:02:00,
2013-07-06 10:07:00,82.2,76.5,30.08,SE,132,3.2,6.9,83,0.00,SCT,,0.01,WeatherDisplay:10.37,2013-07-06 14:07:00,
2013-07-06 10:12:00,82.4,76.0,30.08,ESE,115,4.7,9.2,81,0.00,SCT,,0.01,WeatherDisplay:10.37,2013-07-06 14:12:00,
2013-07-06 10:17:00,82.4,76.3,30.08,SE,139,5.6,11.5,82,0.00,SCT,,0.01,WeatherDisplay:10.37,2013-07-06 14:17:00,
2013-07-06 10:22:00,82.6,76.2,30.08,SE,134,3.6,4.6,81,0.00,SCT,,0.01,WeatherDisplay:10.37,2013-07-06 14:22:00,
2013-07-06 10:27:00,83.1,76.7,30.08,SE,129,1.5,8.1,81,0.00,SCT,,0.01,WeatherDisplay:10.37,2013-07-06 14:27:00,
2013-07-06 10:32:00,83.2,75.6,30.08,ENE,60,5.5,11.5,78,0.00,SCT,,0.01,WeatherDisplay:10.37,2013-07-06 14:32:00,
2013-07-06 10:37:00,83.0,75.8,30.08,SE,139,4.6,9.2,79,0.00,SCT,,0.01,WeatherDisplay:10.37,2013-07-06 14:37:00,
2013-07-06 10:42:00,83.4,76.6,30.08,SE,142,2.9,4.6,80,0.00,SCT,,0.01,WeatherDisplay:10.37,2013-07-06 14:42:00,
2013-07-06 10:47:00,83.8,76.6,30.08,SE,131,4.0,7.0,79,0.00,SCT,,0.01,WeatherDisplay:10.37,2013-07-06 14:47:00,
2013-07-06 10:52:00,83.4,76.2,30.08,SSE,167,5.7,11.5,79,0.00,SCT,,0.01,WeatherDisplay:10.37,2013-07-06 14:52:00,
2013-07-06 10:57:00,83.5,76.3,30.08,SSE,148,4.1,5.8,79,0.00,SCT,,0.01,WeatherDisplay:10.37,2013-07-06 14:57:00,
2013-07-06 11:02:00,83.8,76.2,30.08,SSE,152,5.2,10.0,78,0.00,SCT,,0.01,WeatherDisplay:10.37,2013-07-06 15:02:00,
2013-07-06 11:07:00,83.7,75.3,30.08,SE,127,4.9,8.1,76,0.00,SCT,,0.01,WeatherDisplay:10.37,2013-07-06 15:07:00,
2013-07-06 11:12:00,83.8,75.4,30.08,South,187,2.0,4.6,76,0.00,SCT,,0.01,WeatherDisplay:10.37,2013-07-06 15:12:00,
2013-07-06 11:17:00,84.2,75.4,30.08,ESE,112,6.9,10.4,75,0.00,SCT,,0.01,WeatherDisplay:10.37,2013-07-06 15:17:00,
2013-07-06 11:22:00,84.3,75.9,30.08,SSE,150,3.4,4.6,76,0.00,SCT,,0.01,WeatherDisplay:10.37,2013-07-06 15:22:00,
2013-07-06 11:27:00,84.7,75.9,30.07,East,95,2.9,6.9,75,0.00,SCT,,0.01,WeatherDisplay:10.37,2013-07-06 15:27:00,
2013-07-06 11:32:00,85.3,75.7,30.07,SE,131,3.6,6.9,73,0.00,SCT,,0.01,WeatherDisplay:10.37,2013-07-06 15:32:00,
2013-07-06 11:37:00,85.8,75.7,30.07,ESE,122,5.5,10.4,72,0.00,SCT,,0.01,WeatherDisplay:10.37,2013-07-06 15:37:00,
2013-07-06 11:42:00,86.0,75.5,30.07,SE,143,4.2,9.2,71,0.00,SCT,,0.01,WeatherDisplay:10.37,2013-07-06 15:42:00,
2013-07-06 11:47:00,86.3,75.4,30.07,SE,143,4.0,8.1,70,0.00,SCT,,0.01,WeatherDisplay:10.37,2013-07-06 15:47:00,
2013-07-06 11:52:00,86.4,75.9,30.07,ESE,113,5.4,11.5,71,0.00,SCT,,0.01,WeatherDisplay:10.37,2013-07-06 15:52:00,
2013-07-06 11:57:00,86.5,75.1,30.07,SE,143,5.4,14.0,69,0.00,SCT,,0.01,WeatherDisplay:10.37,2013-07-06 15:57:00,
2013-07-06 12:02:00,86.3,74.9,30.07,ESE,115,4.1,7.0,69,0.00,SCT,,0.01,WeatherDisplay:10.37,2013-07-06 16:02:00,
2013-07-06 12:08:00,86.2,75.3,30.07,ESE,119,3.4,8.1,70,0.00,SCT,,0.01,WeatherDisplay:10.37,2013-07-06 16:08:00,
2013-07-06 12:13:00,86.5,75.1,30.07,SSE,155,5.1,11.5,69,0.00,SCT,,0.01,WeatherDisplay:10.37,2013-07-06 16:13:00,
2013-07-06 12:18:00,86.4,74.6,30.06,ENE,65,5.4,12.7,68,0.00,SCT,,0.01,WeatherDisplay:10.37,2013-07-06 16:18:00,
2013-07-06 12:23:00,86.9,75.5,30.06,ESE,116,4.5,12.7,69,0.00,SCT,,0.01,WeatherDisplay:10.37,2013-07-06 16:23:00,
2013-07-06 12:28:00,87.6,74.8,30.06,SW,224,7.3,11.5,66,0.00,SCT,,0.01,WeatherDisplay:10.37,2013-07-06 16:28:00,
2013-07-06 12:35:00,87.7,74.5,30.06,South,174,4.3,10.4,65,0.00,SCT,,0.01,WeatherDisplay:10.37,2013-07-06 16:35:00,
2013-07-06 12:40:00,87.8,74.1,30.06,SE,132,5.0,12.0,64,0.00,SCT,,0.01,WeatherDisplay:10.37,2013-07-06 16:40:00,
2013-07-06 12:45:00,87.7,74.9,30.06,East,98,7.6,11.5,66,0.00,SCT,,0.01,WeatherDisplay:10.37,2013-07-06 16:45:00,
2013-07-06 12:50:00,88.3,75.0,30.06,East,98,4.8,10.4,65,0.00,SCT,,0.01,WeatherDisplay:10.37,2013-07-06 16:50:00,
2013-07-06 12:56:00,88.3,75.0,30.06,ESE,121,4.0,10.4,65,0.00,SCT,,0.01,WeatherDisplay:10.37,2013-07-06 16:56:00,
2013-07-06 13:01:00,88.1,74.8,30.06,ENE,60,5.4,9.2,65,0.00,SCT,,0.01,WeatherDisplay:10.37,2013-07-06 17:01:00,
2013-07-06 13:06:00,88.1,73.9,30.06,ESE,104,4.0,7.0,63,0.00,SCT,,0.01,WeatherDisplay:10.37,2013-07-06 17:06:00,
2013-07-06 13:11:00,88.6,75.3,30.06,ESE,117,3.6,10.4,65,0.00,SCT,,0.01,WeatherDisplay:10.37,2013-07-06 17:11:00,
2013-07-06 13:16:00,89.3,74.1,30.05,East,85,5.2,10.0,61,0.00,SCT,,0.01,WeatherDisplay:10.37,2013-07-06 17:16:00,
2013-07-06 13:23:00,89.3,74.1,30.05,SE,142,5.4,11.5,61,0.00,SCT,,0.01,WeatherDisplay:10.37,2013-07-06 17:23:00,
2013-07-06 13:28:00,89.3,73.6,30.05,SE,133,6.2,11.5,60,0.00,SCT,,0.01,WeatherDisplay:10.37,2013-07-06 17:28:00,
2013-07-06 13:34:00,89.5,73.8,30.05,East,91,3.3,6.9,60,0.00,SCT,,0.01,WeatherDisplay:10.37,2013-07-06 17:34:00,
2013-07-06 13:39:00,90.1,74.8,30.05,SE,127,1.7,9.2,61,0.00,SCT,,0.01,WeatherDisplay:10.37,2013-07-06 17:39:00,
2013-07-06 13:44:00,90.5,74.2,30.05,SE,130,6.3,11.5,59,0.00,SCT,,0.01,WeatherDisplay:10.37,2013-07-06 17:44:00,
2013-07-06 13:49:00,90.1,74.3,30.05,ESE,118,3.5,6.9,60,0.00,SCT,,0.01,WeatherDisplay:10.37,2013-07-06 17:49:00,
2013-07-06 13:54:00,90.4,73.6,30.05,SSE,162,6.3,10.4,58,0.00,SCT,,0.01,WeatherDisplay:10.37,2013-07-06 17:54:00,
2013-07-06 14:00:00,90.6,73.8,30.05,SSE,148,4.1,11.5,58,0.00,SCT,,0.01,WeatherDisplay:10.37,2013-07-06 18:00:00,
2013-07-06 14:05:00,90.6,73.8,30.05,SE,127,5.7,12.7,58,0.00,SCT,,0.01,WeatherDisplay:10.37,2013-07-06 18:05:00,
2013-07-06 14:10:00,90.2,72.9,30.04,East,91,3.0,6.0,57,0.00,SCT,,0.01,WeatherDisplay:10.37,2013-07-06 18:10:00,
2013-07-06 14:15:00,90.6,73.8,30.04,SE,136,2.8,6.0,58,0.00,SCT,,0.01,WeatherDisplay:10.37,2013-07-06 18:15:00,
2013-07-06 14:21:00,90.7,73.9,30.05,SE,134,3.9,5.8,58,0.00,SCT,,0.01,WeatherDisplay:10.37,2013-07-06 18:21:00,
2013-07-06 14:26:00,90.5,73.2,30.04,ESE,109,2.4,6.9,57,0.00,SCT,,0.01,WeatherDisplay:10.37,2013-07-06 18:26:00,
2013-07-06 14:33:00,90.1,73.8,30.04,East,101,4.0,10.4,59,0.00,SCT,,0.01,WeatherDisplay:10.37,2013-07-06 18:33:00,
2013-07-06 14:38:00,90.2,72.4,30.04,SSE,155,5.3,9.2,56,0.00,SCT,,0.01,WeatherDisplay:10.37,2013-07-06 18:38:00,
2013-07-06 14:44:00,91.1,73.7,30.04,SE,127,4.0,7.0,57,0.00,SCT,,0.01,WeatherDisplay:10.37,2013-07-06 18:44:00,
2013-07-06 14:49:00,90.4,71.5,30.04,SSE,157,6.3,11.5,54,0.00,SCT,,0.01,WeatherDisplay:10.37,2013-07-06 18:49:00,
2013-07-06 14:55:00,91.0,72.0,30.04,SE,128,4.5,8.0,54,0.00,SCT,,0.01,WeatherDisplay:10.37,2013-07-06 18:55:00,
2013-07-06 15:01:00,91.3,72.9,30.04,NE,49,4.3,9.2,55,0.00,SCT,,0.01,WeatherDisplay:10.37,2013-07-06 19:01:00,
2013-07-06 15:06:00,91.6,72.6,30.03,SSE,148,3.1,5.8,54,0.00,SCT,,0.01,WeatherDisplay:10.37,2013-07-06 19:06:00,
2013-07-06 15:12:00,91.8,72.8,30.03,SE,129,1.8,11.0,54,0.00,SCT,,0.01,WeatherDisplay:10.37,2013-07-06 19:12:00,
2013-07-06 15:18:00,91.8,72.2,30.03,ESE,103,3.4,9.2,53,0.00,SCT,,0.01,WeatherDisplay:10.37,2013-07-06 19:18:00,
2013-07-06 15:24:00,92.0,71.3,30.03,ESE,122,5.3,8.0,51,0.00,SCT,,0.01,WeatherDisplay:10.37,2013-07-06 19:24:00,
2013-07-06 15:29:00,92.0,70.7,30.03,ESE,106,5.2,6.9,50,0.00,SCT,,0.01,WeatherDisplay:10.37,2013-07-06 19:29:00,
2013-07-06 15:34:00,92.6,72.4,30.02,ESE,118,1.7,4.6,52,0.00,SCT,,0.01,WeatherDisplay:10.37,2013-07-06 19:34:00,
2013-07-06 15:39:00,92.8,71.4,30.02,SSE,148,5.9,9.2,50,0.00,SCT,,0.01,WeatherDisplay:10.37,2013-07-06 19:39:00,
2013-07-06 15:45:00,91.9,71.2,30.02,ESE,121,4.4,8.1,51,0.00,SCT,,0.01,WeatherDisplay:10.37,2013-07-06 19:45:00,
2013-07-06 15:50:00,91.8,71.1,30.02,ENE,77,3.2,5.8,51,0.00,SCT,,0.01,WeatherDisplay:10.37,2013-07-06 19:50:00,
2013-07-06 15:55:00,92.0,71.3,30.02,SE,134,1.9,4.0,51,0.00,SCT,,0.01,WeatherDisplay:10.37,2013-07-06 19:55:00,
2013-07-06 16:01:00,92.0,71.3,30.01,SE,133,3.5,7.0,51,0.00,SCT,,0.01,WeatherDisplay:10.37,2013-07-06 20:01:00,
2013-07-06 16:06:00,91.6,72.6,30.01,SSE,159,4.6,8.1,54,0.00,SCT,,0.01,WeatherDisplay:10.37,2013-07-06 20:06:00,
2013-07-06 16:12:00,91.0,77.1,30.02,WSW,249,4.5,8.1,64,0.00,SCT,,0.01,WeatherDisplay:10.37,2013-07-06 20:12:00,
2013-07-06 16:18:00,89.6,76.7,30.01,South,187,1.5,3.5,66,0.00,SCT,,0.01,WeatherDisplay:10.37,2013-07-06 20:18:00,
2013-07-06 16:23:00,90.6,76.3,30.01,WSW,242,1.0,2.3,63,0.00,SCT,,0.01,WeatherDisplay:10.37,2013-07-06 20:23:00,
2013-07-06 16:28:00,90.2,76.4,30.02,South,174,7.3,11.5,64,0.00,SCT,,0.01,WeatherDisplay:10.37,2013-07-06 20:28:00,
2013-07-06 16:33:00,88.4,76.0,30.01,WSW,245,4.3,7.0,67,0.00,SCT,,0.01,WeatherDisplay:10.37,2013-07-06 20:33:00,
2013-07-06 16:38:00,87.7,76.7,30.02,South,188,6.1,10.0,70,0.00,SCT,,0.01,WeatherDisplay:10.37,2013-07-06 20:38:00,
2013-07-06 16:45:00,86.9,76.4,30.02,SSW,200,2.2,4.0,71,0.00,SCT,,0.01,WeatherDisplay:10.37,2013-07-06 20:45:00,
2013-07-06 16:50:00,87.1,76.5,30.02,SW,229,3.9,6.0,71,0.00,SCT,,0.01,WeatherDisplay:10.37,2013-07-06 20:50:00,
2013-07-06 16:55:00,86.9,75.9,30.01,SSW,211,2.1,3.5,70,0.00,SCT,,0.01,WeatherDisplay:10.37,2013-07-06 20:55:00,
2013-07-06 17:00:00,87.0,75.2,30.01,SW,221,3.1,6.0,68,0.00,SCT,,0.01,WeatherDisplay:10.37,2013-07-06 21:00:00,
2013-07-06 17:05:00,87.0,75.6,30.01,West,266,1.7,5.0,69,0.00,SCT,,0.01,WeatherDisplay:10.37,2013-07-06 21:05:00,
2013-07-06 17:11:00,87.0,74.7,30.00,WSW,252,1.9,7.0,67,0.00,SCT,,0.01,WeatherDisplay:10.37,2013-07-06 21:11:00,
2013-07-06 17:16:00,87.0,75.6,30.01,WSW,239,3.3,6.9,69,0.00,SCT,,0.01,WeatherDisplay:10.37,2013-07-06 21:16:00,
2013-07-06 17:21:00,86.7,75.3,30.01,WSW,238,4.6,8.1,69,0.00,SCT,,0.01,WeatherDisplay:10.37,2013-07-06 21:21:00,
2013-07-06 17:26:00,86.6,75.2,30.01,SSW,209,3.1,5.8,69,0.00,SCT,,0.01,WeatherDisplay:10.37,2013-07-06 21:26:00,
2013-07-06 17:31:00,86.6,75.2,30.01,WSW,239,1.9,5.8,69,0.00,SCT,,0.01,WeatherDisplay:10.37,2013-07-06 21:31:00,
2013-07-06 17:37:00,86.9,75.1,30.01,SW,219,5.0,7.0,68,0.00,SCT,,0.01,WeatherDisplay:10.37,2013-07-06 21:37:00,
2013-07-06 17:42:00,87.0,75.6,30.01,SSE,163,3.3,5.0,69,0.00,SCT,,0.01,WeatherDisplay:10.37,2013-07-06 21:42:00,
2013-07-06 17:47:00,87.2,76.2,30.01,SSW,210,4.5,7.0,70,0.00,SCT,,0.01,WeatherDisplay:10.37,2013-07-06 21:47:00,
2013-07-06 17:54:00,86.8,76.7,30.01,SW,221,2.3,8.1,72,0.00,SCT,,0.01,WeatherDisplay:10.37,2013-07-06 21:54:00,
2013-07-06 18:00:00,86.6,76.1,30.01,SSW,205,4.1,6.9,71,0.00,SCT,,0.01,WeatherDisplay:10.37,2013-07-06 22:00:00,
2013-07-06 18:05:00,86.3,75.8,30.00,South,186,3.9,6.9,71,0.00,SCT,,0.01,WeatherDisplay:10.37,2013-07-06 22:05:00,
2013-07-06 18:11:00,86.2,75.3,30.00,WSW,242,4.6,6.9,70,0.00,SCT,,0.01,WeatherDisplay:10.37,2013-07-06 22:11:00,
2013-07-06 18:16:00,85.6,75.1,30.00,SSW,203,1.1,5.8,71,0.00,SCT,,0.01,WeatherDisplay:10.37,2013-07-06 22:16:00,
2013-07-06 18:22:00,85.6,75.5,30.00,SSW,194,2.7,6.0,72,0.00,SCT,,0.01,WeatherDisplay:10.37,2013-07-06 22:22:00,
2013-07-06 18:28:00,85.2,75.6,30.00,SSW,211,1.5,5.0,73,0.00,SCT,,0.01,WeatherDisplay:10.37,2013-07-06 22:28:00,
2013-07-06 18:34:00,84.8,75.2,30.00,South,187,2.7,5.0,73,0.00,SCT,,0.01,WeatherDisplay:10.37,2013-07-06 22:34:00,
2013-07-06 18:39:00,84.4,75.2,30.00,SSW,205,3.1,4.0,74,0.00,SCT,,0.01,WeatherDisplay:10.37,2013-07-06 22:39:00,
2013-07-06 18:44:00,84.0,75.2,30.00,SSW,198,4.2,5.8,75,0.00,SCT,,0.01,WeatherDisplay:10.37,2013-07-06 22:44:00,
2013-07-06 18:50:00,83.7,75.3,30.00,SSW,208,1.5,3.5,76,0.00,SCT,,0.01,WeatherDisplay:10.37,2013-07-06 22:50:00,
2013-07-06 18:57:00,83.5,74.7,30.00,SSE,162,1.3,4.6,75,0.00,SCT,,0.01,WeatherDisplay:10.37,2013-07-06 22:57:00,
2013-07-06 19:03:00,83.4,73.8,30.01,SW,215,0.4,4.6,73,0.00,SCT,,0.01,WeatherDisplay:10.37,2013-07-06 23:03:00,
2013-07-06 19:08:00,83.2,73.6,30.01,WSW,255,2.3,3.5,73,0.00,SCT,,0.01,WeatherDisplay:10.37,2013-07-06 23:08:00,
2013-07-06 19:15:00,82.9,74.2,30.01,SW,236,0.1,3.5,75,0.00,SCT,,0.01,WeatherDisplay:10.37,2013-07-06 23:15:00,
2013-07-06 19:20:00,82.8,74.1,30.01,SSE,162,0.9,2.3,75,0.00,SCT,,0.01,WeatherDisplay:10.37,2013-07-06 23:20:00,
2013-07-06 19:25:00,82.9,74.2,30.01,SW,224,0.3,3.5,75,0.00,SCT,,0.01,WeatherDisplay:10.37,2013-07-06 23:25:00,
2013-07-06 19:31:00,82.9,74.2,30.01,WSW,252,0.0,0.0,75,0.00,SCT,,0.01,WeatherDisplay:10.37,2013-07-06 23:31:00,
2013-07-06 19:37:00,82.8,74.1,30.02,WSW,252,0.0,0.0,75,0.00,SCT,,0.01,WeatherDisplay:10.37,2013-07-06 23:37:00,
2013-07-06 19:42:00,82.7,74.4,30.02,NW,326,0.0,0.0,76,0.00,SCT,,0.01,WeatherDisplay:10.37,2013-07-06 23:42:00,
2013-07-06 19:47:00,82.8,74.5,30.02,NNW,328,0.1,1.1,76,0.00,SCT,,0.01,WeatherDisplay:10.37,2013-07-06 23:47:00,
2013-07-06 19:53:00,82.8,74.5,30.02,NNW,328,0.0,1.1,76,0.00,SCT,,0.01,WeatherDisplay:10.37,2013-07-06 23:53:00,
2013-07-06 19:58:00,82.8,74.5,30.02,NNW,328,0.0,0.0,76,0.00,SCT,,0.01,WeatherDisplay:10.37,2013-07-06 23:58:00,
2013-07-06 20:03:00,83.0,74.6,30.02,NNW,329,0.0,0.0,76,0.00,SCT,,0.01,WeatherDisplay:10.37,2013-07-07 00:03:00,
2013-07-06 20:08:00,83.0,74.6,30.02,NNW,340,0.0,0.0,76,0.00,SCT,,0.01,WeatherDisplay:10.37,2013-07-07 00:08:00,
2013-07-06 20:13:00,83.0,74.6,30.02,NNW,338,0.0,0.0,76,0.00,SCT,,0.01,WeatherDisplay:10.37,2013-07-07 00:13:00,
2013-07-06 20:18:00,82.7,74.4,30.02,NNW,342,0.0,0.0,76,0.00,SCT,,0.01,WeatherDisplay:10.37,2013-07-07 00:18:00,
2013-07-06 20:23:00,82.3,74.4,30.03,North,349,0.0,1.0,77,0.00,SCT,,0.01,WeatherDisplay:10.37,2013-07-07 00:23:00,
2013-07-06 20:30:00,82.5,74.6,30.03,North,7,0.0,0.0,77,0.00,SCT,,0.01,WeatherDisplay:10.37,2013-07-07 00:30:00,
2013-07-06 20:36:00,82.3,75.1,30.02,North,6,0.0,1.1,79,0.00,SCT,,0.01,WeatherDisplay:10.37,2013-07-07 00:36:00,
2013-07-06 20:42:00,81.9,74.7,30.03,North,6,0.0,0.0,79,0.00,SCT,,0.01,WeatherDisplay:10.37,2013-07-07 00:42:00,
2013-07-06 20:47:00,81.8,74.6,30.03,North,6,0.0,0.0,79,0.00,SCT,,0.01,WeatherDisplay:10.37,2013-07-07 00:47:00,
2013-07-06 20:54:00,81.5,74.7,30.04,NE,41,0.0,0.0,80,0.00,SCT,,0.01,WeatherDisplay:10.37,2013-07-07 00:54:00,
2013-07-06 21:08:00,81.0,74.6,30.04,NE,40,0.0,1.1,81,0.01,SCT,,0.01,WeatherDisplay:10.37,2013-07-07 01:08:00,
2013-07-06 21:13:00,80.9,74.5,30.05,NE,40,0.0,0.0,81,0.01,SCT,,0.01,WeatherDisplay:10.37,2013-07-07 01:13:00,
2013-07-06 21:18:00,80.8,74.8,30.04,NE,40,0.0,0.0,82,0.01,SCT,,0.01,WeatherDisplay:10.37,2013-07-07 01:18:00,
2013-07-06 21:24:00,80.8,74.8,30.05,NE,56,0.0,0.0,82,0.01,SCT,,0.01,WeatherDisplay:10.37,2013-07-07 01:24:00,
2013-07-06 21:29:00,80.6,75.0,30.05,NE,53,0.0,0.0,83,0.01,SCT,,0.01,WeatherDisplay:10.37,2013-07-07 01:29:00,
2013-07-06 21:35:00,80.5,74.9,30.05,North,11,0.1,1.1,83,0.01,SCT,,0.01,WeatherDisplay:10.37,2013-07-07 01:35:00,
2013-07-06 21:41:00,80.6,75.0,30.05,North,11,0.0,1.1,83,0.01,SCT,,0.01,WeatherDisplay:10.37,2013-07-07 01:41:00,
2013-07-06 21:46:00,80.7,74.7,30.05,NNE,13,0.0,1.1,82,0.01,SCT,,0.01,WeatherDisplay:10.37,2013-07-07 01:46:00,
2013-07-06 21:51:00,80.7,75.1,30.06,NNE,19,0.0,1.1,83,0.01,SCT,,0.01,WeatherDisplay:10.37,2013-07-07 01:51:00,
2013-07-06 21:56:00,80.6,75.0,30.06,SSW,198,0.6,2.3,83,0.01,SCT,,0.01,WeatherDisplay:10.37,2013-07-07 01:56:00,
2013-07-06 22:02:00,80.8,75.2,30.06,SW,214,1.2,3.5,83,0.00,SCT,,0.01,WeatherDisplay:10.37,2013-07-07 02:02:00,
2013-07-06 22:07:00,81.0,74.6,30.06,NNW,345,0.3,1.1,81,0.00,SCT,,0.01,WeatherDisplay:10.37,2013-07-07 02:07:00,
2013-07-06 22:12:00,81.5,74.7,30.06,NNW,345,0.0,0.0,80,0.00,SCT,,0.01,WeatherDisplay:10.37,2013-07-07 02:12:00,
2013-07-06 22:18:00,81.4,75.4,30.07,NNW,345,0.0,0.0,82,0.00,SCT,,0.01,WeatherDisplay:10.37,2013-07-07 02:18:00,
2013-07-06 22:24:00,81.4,75.4,30.07,NNE,20,0.0,0.0,82,0.00,SCT,,0.01,WeatherDisplay:10.37,2013-07-07 02:24:00,
2013-07-06 22:30:00,81.6,75.2,30.07,North,9,0.0,1.1,81,0.00,SCT,,0.01,WeatherDisplay:10.37,2013-07-07 02:30:00,
2013-07-06 22:35:00,81.5,75.1,30.07,North,9,0.0,0.0,81,0.00,SCT,,0.01,WeatherDisplay:10.37,2013-07-07 02:35:00,
2013-07-06 22:41:00,81.1,75.1,30.07,North,9,0.1,1.1,82,0.00,SCT,,0.01,WeatherDisplay:10.37,2013-07-07 02:41:00,
2013-07-06 22:46:00,80.9,74.9,30.08,NNE,16,0.3,1.1,82,0.00,SCT,,0.01,WeatherDisplay:10.37,2013-07-07 02:46:00,
2013-07-06 22:52:00,81.1,75.1,30.08,NE,37,0.0,1.1,82,0.00,SCT,,0.01,WeatherDisplay:10.37,2013-07-07 02:52:00,
2013-07-06 22:57:00,81.0,75.0,30.08,NE,41,0.0,0.0,82,0.00,SCT,,0.01,WeatherDisplay:10.37,2013-07-07 02:57:00,
2013-07-06 23:02:00,81.0,75.0,30.08,NE,40,0.0,0.0,82,0.00,SCT,,0.01,WeatherDisplay:10.37,2013-07-07 03:02:00,
2013-07-06 23:07:00,80.9,75.2,30.08,NE,40,0.0,0.0,83,0.00,SCT,,0.01,WeatherDisplay:10.37,2013-07-07 03:07:00,
2013-07-06 23:12:00,80.6,75.0,30.08,SE,127,0.0,1.1,83,0.00,SCT,,0.01,WeatherDisplay:10.37,2013-07-07 03:12:00,
2013-07-06 23:17:00,80.5,74.9,30.08,ESE,105,0.8,3.5,83,0.00,SCT,,0.01,WeatherDisplay:10.37,2013-07-07 03:17:00,
2013-07-06 23:22:00,80.6,75.0,30.08,ESE,102,0.3,1.1,83,0.00,SCT,,0.01,WeatherDisplay:10.37,2013-07-07 03:22:00,
2013-07-06 23:28:00,80.6,75.0,30.08,ESE,122,0.0,1.1,83,0.00,SCT,,0.01,WeatherDisplay:10.37,2013-07-07 03:28:00,
2013-07-06 23:34:00,80.7,74.7,30.08,East,100,1.1,4.0,82,0.00,SCT,,0.01,WeatherDisplay:10.37,2013-07-07 03:34:00,
2013-07-06 23:39:00,80.9,74.5,30.08,SSE,147,0.6,2.3,81,0.00,SCT,,0.01,WeatherDisplay:10.37,2013-07-07 03:39:00,
2013-07-06 23:44:00,81.0,74.2,30.08,East,95,0.3,2.3,80,0.00,SCT,,0.01,WeatherDisplay:10.37,2013-07-07 03:44:00,
2013-07-06 23:50:00,80.9,74.1,30.08,ESE,112,1.5,3.5,80,0.00,SCT,,0.01,WeatherDisplay:10.37,2013-07-07 03:50:00,
2013-07-06 23:55:00,80.9,74.1,30.08,East,88,0.1,1.1,80,0.00,SCT,,0.01,WeatherDisplay:10.37,2013-07-07 03:55:00,